Wind_Speed
23 22 21 21 21 21 21 22 23 23 24 24 24 25 25 25 25 23 24 23 22 22 22 21 21 20 20 20 21 20 20 20 20 20 20 20 20 20 19 19 19 20 20 20
26 24 23 23 23 22 22 22 24 24 24 25 27 29 29 29 27 26 25 25 25 24 23 22 22 22 21 21 22 21 21 21 21 21 21 20 20 20 19 19 19 19 20 20
26 25 25 25 23 23 23 24 25 25 26 27 29 30 30 31 28 26 26 26 26 26 24 24 23 23 24 23 23 23 22 22 21 21 21 21 20 20 21 20 20 20 19 19
27 26 29 24 23 25 27 28 28 29 30 31 32 31 32 32 31 28 27 26 25 26 26 26 25 25 25 24 24 24 23 23 23 22 23 23 22 22 22 21 21 21 20 20
28 28 28 25 26 25 27 30 30 30 32 33 32 32 33 33 33 32 29 26 27 28 28 27 27 27 26 25 26 26 24 24 24 24 24 24 23 23 22 22 22 21 21 21
29 29 28 27 28 27 30 33 33 33 32 32 32 34 35 34 32 30 29 29 29 29 30 29 28 29 27 26 27 27 26 26 25 25 25 24 24 24 23 22 23 23 22 22
29 30 29 30 31 31 32 33 33 33 33 32 33 35 36 35 34 32 31 31 31 31 31 31 30 29 28 27 28 28 28 27 27 26 25 25 24 24 24 24 24 23 23 23
28 29 31 32 34 34 35 36 36 35 35 35 35 34 35 35 35 35 34 33 33 32 32 31 31 30 31 30 29 30 30 29 27 27 26 26 26 25 25 25 25 25 25 24
29 31 33 34 36 36 36 36 36 37 37 36 36 35 36 35 35 35 35 35 34 34 33 33 33 32 31 31 31 31 32 30 29 28 28 27 27 27 26 26 26 26 26 26
33 33 34 34 32 33 34 35 36 38 38 38 37 35 35 35 35 35 35 35 35 35 34 34 33 32 32 31 32 32 32 31 30 29 29 29 29 28 27 27 26 26 25 25
34 35 35 35 34 34 35 36 37 38 39 39 38 37 36 37 36 36 36 36 36 35 35 35 34 33 32 32 33 33 33 32 31 31 31 31 30 29 28 27 27 26 25 25
35 35 35 35 36 37 37 37 37 38 38 38 38 38 38 38 38 37 37 37 37 36 36 35 35 34 34 34 33 33 33 33 34 33 33 32 31 30 29 29 28 27 26 26
34 35 36 37 37 37 37 38 39 39 39 38 38 38 38 38 38 38 38 38 38 37 37 36 36 35 35 35 35 35 35 35 35 35 34 34 32 31 30 30 29 28 28 28
34 35 36 37 38 38 38 37 37 38 39 39 38 38 38 38 38 38 39 37 37 37 37 37 36 36 36 36 37 37 37 37 37 37 36 36 34 33 32 32 31 30 29 29
33 34 35 36 36 37 38 37 37 37 37 37 37 37 37 37 38 38 37 36 37 37 37 37 37 37 37 38 38 38 38 37 37 37 37 37 37 36 35 34 33 32 31 30
33 34 34 34 34 35 36 37 36 36 36 35 35 35 35 36 35 35 36 36 36 37 37 37 37 37 38 38 38 39 39 37 37 37 37 38 38 37 35 34 34 33 33 32
32 32 34 34 34 34 35 36 37 37 36 36 35 35 35 34 34 34 35 35 36 37 38 38 38 38 39 38 37 38 39 39 38 38 38 38 39 37 36 36 36 35 34 34
31 31 32 33 34 34 34 35 36 37 37 36 35 34 34 34 34 34 34 35 35 36 36 38 38 38 38 38 37 37 38 39 39 38 38 37 38 38 38 37 36 36 36 36
30 30 31 32 32 32 33 33 33 34 35 35 34 34 34 34 34 33 33 34 34 35 35 36 36 37 37 37 37 37 38 38 38 37 37 37 37 37 37 37 37 37 37 36
29 29 29 29 30 30 30 30 31 31 32 32 33 33 32 32 32 32 32 33 33 33 33 34 35 35 35 35 35 36 36 36 36 35 35 35 36 35 35 36 36 37 37 36
27 28 28 28 28 28 29 29 30 30 30 30 30 30 30 30 30 30 31 32 32 32 32 33 33 34 34 34 34 34 34 35 34 34 33 34 34 33 33 33 34 34 34 34
25 26 26 26 26 27 27 27 27 27 27 26 27 28 28 28 28 28 28 29 29 29 30 30 30 32 32 32 32 32 33 33 33 32 32 33 33 33 32 32 33 33 33 33
24 25 25 25 25 25 25 24 23 23 23 24 24 25 25 24 24 25 26 26 27 27 27 27 28 29 29 29 30 30 31 31 31 31 31 32 33 32 32 32 32 31 31 31
24 24 24 23 23 22 22 22 22 21 21 21 21 21 21 21 22 22 23 23 24 24 25 26 26 27 28 28 29 29 29 29 30 31 31 31 31 31 31 31 31 31 31 32
21 22 21 20 20 20 20 20 20 20 19 19 19 19 19 20 20 20 21 21 21 22 23 24 25 26 27 27 27 27 27 27 28 28 29 29 29 30 30 30 30 30 30 30
18 17 17 18 18 17 17 17 18 17 18 17 18 18 19 19 19 19 19 19 20 21 22 22 22 23 24 24 24 26 26 26 26 27 27 27 28 28 29 29 29 29 30 30
15 15 15 15 15 14 15 15 16 16 16 17 17 17 17 18 18 18 18 18 19 19 20 20 21 21 22 23 24 24 24 25 25 26 26 26 26 27 28 28 29 29 29 29
Wind_Direction
240 240 246 248 250 255 257 255 256 258 261 263 264 269 271 272 274 270 274 273 273 275 275 276 276 276 274 273 276 279 281 284 288 290 291 291 291 289 286 285 283 285 287 288
243 243 248 254 253 253 258 261 261 262 263 264 262 268 270 272 274 271 271 271 272 274 274 275 276 276 275 273 274 276 278 281 283 286 288 289 290 289 289 288 286 288 287 289
250 248 249 250 255 257 257 257 257 257 258 258 260 262 265 269 270 267 267 270 271 272 273 271 274 275 276 273 273 275 277 279 279 282 285 287 287 288 288 287 289 288 287 289
254 252 254 254 255 256 255 254 256 259 260 261 263 263 266 269 269 269 268 269 272 273 272 272 272 274 274 273 273 272 274 277 278 280 282 283 284 285 286 288 288 286 286 286
255 256 259 260 257 257 257 257 257 258 259 262 265 267 267 268 269 271 269 269 271 272 271 270 273 274 270 269 271 271 271 274 277 279 280 282 283 284 284 286 285 284 283 285
256 257 258 257 258 256 257 260 260 258 260 263 265 267 267 268 268 270 270 269 269 270 270 270 271 271 269 268 268 269 270 272 273 276 279 281 281 282 282 282 283 283 283 283
257 259 258 255 255 254 253 257 262 262 262 263 262 264 267 268 269 268 268 268 269 270 271 270 272 273 271 270 269 271 272 270 271 273 276 278 280 280 281 281 281 283 283 282
256 256 255 256 257 257 256 258 262 265 266 265 264 265 265 266 267 267 267 267 267 268 268 269 271 273 273 273 272 271 270 270 270 272 274 276 277 278 280 280 280 281 280 280
251 252 255 258 259 259 259 259 260 263 265 266 266 265 265 264 265 265 266 266 267 267 267 267 268 269 271 272 271 271 270 270 272 272 273 274 274 275 277 278 279 281 281 280
254 255 257 259 260 260 261 261 261 262 263 264 266 266 266 266 266 266 266 266 266 266 266 266 267 267 268 269 270 270 269 270 271 272 273 275 276 275 275 274 277 280 281 281
259 258 258 259 261 262 262 261 262 262 262 264 265 265 265 266 266 267 267 265 265 265 266 266 267 266 266 267 267 268 268 269 271 272 274 276 276 277 276 275 275 278 279 279
263 260 259 260 262 263 264 264 263 262 262 264 265 265 266 266 266 266 267 265 264 263 263 264 265 265 265 265 266 266 267 269 270 271 273 273 273 276 276 274 274 276 277 277
264 262 261 261 261 263 264 266 266 265 264 264 265 266 266 266 266 266 266 264 262 261 262 263 264 264 263 264 266 267 267 268 268 269 271 271 271 272 272 272 272 273 275 276
265 264 263 263 263 264 265 267 268 267 266 265 266 266 266 266 266 266 265 262 261 260 260 261 263 263 263 263 264 267 268 268 268 269 269 269 269 270 271 272 271 271 272 272
266 266 267 266 265 265 265 266 267 267 267 267 268 267 266 266 265 266 264 262 261 260 260 260 262 262 263 263 265 266 268 268 267 267 269 270 269 269 271 271 271 271 270 270
268 267 266 266 267 267 266 265 266 267 268 268 268 268 268 268 267 265 264 263 262 261 259 259 260 261 262 263 264 265 267 268 268 267 268 268 269 270 269 269 271 271 270 271
270 269 266 267 268 270 269 266 265 266 267 268 269 269 269 268 267 266 265 263 263 262 260 259 260 261 262 263 264 265 266 267 268 267 268 267 268 269 268 268 269 269 270 270
271 271 270 271 269 269 269 269 267 266 267 268 268 267 267 268 267 266 265 264 263 262 261 260 260 260 262 263 264 265 265 265 266 267 267 267 268 269 269 268 267 268 268 270
271 272 273 274 275 274 272 271 269 269 269 269 269 269 269 268 267 266 265 264 264 264 262 261 261 261 262 263 263 263 263 264 266 266 265 266 267 268 269 268 268 267 269 270
275 276 275 275 275 275 273 273 272 272 272 270 268 267 267 267 266 266 265 266 265 264 262 261 262 263 264 265 265 264 263 265 266 265 265 266 266 267 267 268 269 269 269 271
276 277 277 276 275 275 276 275 275 274 273 272 270 268 266 266 266 266 266 266 265 264 264 264 264 264 265 268 268 266 266 266 266 265 265 266 266 267 267 267 268 269 271 272
276 278 279 277 276 276 277 278 277 276 274 273 272 270 269 268 266 266 267 268 268 265 264 265 265 264 265 266 267 267 267 266 266 265 264 264 265 266 266 267 267 268 270 272
278 278 279 279 277 276 275 275 277 277 275 273 274 272 270 269 269 268 269 269 269 269 268 267 267 266 266 267 267 267 267 266 266 265 265 265 265 265 266 267 266 268 271 272
277 277 278 279 279 277 276 276 276 275 274 275 274 271 269 269 270 271 270 269 269 270 269 269 269 269 268 268 267 267 267 266 265 264 265 265 265 266 267 267 268 270 270 271
280 280 279 278 277 276 275 275 275 273 272 273 272 271 271 272 274 275 273 270 269 270 270 270 270 269 268 267 266 266 266 267 267 264 262 263 264 266 267 268 269 269 270 271
283 282 281 280 276 275 275 276 276 275 274 273 271 271 273 274 277 277 276 273 271 271 270 271 272 270 269 267 267 268 269 268 268 267 265 265 266 267 268 268 269 269 269 270
287 284 283 283 281 279 278 280 279 277 277 276 274 275 277 278 278 279 279 278 275 274 272 272 272 272 271 269 268 269 268 268 269 266 265 265 265 266 268 268 268 270 270 270
Height
5874 5876 5877 5878 5879 5880 5881 5882 5882 5882 5881 5880 5878 5876 5875 5874 5874 5873 5874 5874 5873 5874 5875 5875 5875 5874 5874 5875 5875 5875 5875 5875 5874 5874 5873 5872 5871 5869 5869 5868 5867 5866 5865 5865
5867 5869 5870 5870 5872 5873 5875 5875 5875 5875 5874 5873 5872 5872 5870 5868 5869 5868 5869 5869 5869 5870 5870 5870 5870 5869 5869 5870 5870 5870 5870 5870 5869 5869 5868 5867 5866 5865 5864 5863 5862 5861 5861 5860
5860 5862 5862 5865 5867 5867 5867 5867 5867 5867 5868 5866 5865 5865 5865 5863 5863 5862 5863 5863 5864 5865 5865 5865 5864 5864 5864 5864 5864 5865 5865 5864 5864 5863 5862 5862 5861 5860 5859 5858 5858 5857 5856 5855
5852 5855 5855 5860 5860 5859 5859 5859 5860 5859 5858 5857 5857 5857 5857 5856 5855 5856 5857 5857 5858 5858 5858 5858 5858 5858 5858 5858 5858 5858 5859 5858 5858 5857 5857 5856 5855 5855 5854 5853 5852 5851 5850 5850
5845 5846 5848 5851 5851 5851 5851 5850 5851 5850 5850 5850 5849 5849 5849 5849 5849 5850 5851 5850 5851 5851 5851 5852 5852 5851 5851 5851 5851 5852 5852 5852 5852 5852 5851 5850 5850 5849 5848 5847 5846 5846 5845 5845
5837 5838 5841 5843 5842 5842 5843 5841 5841 5841 5842 5842 5842 5841 5840 5840 5842 5842 5843 5844 5844 5844 5844 5844 5844 5843 5843 5844 5844 5844 5845 5845 5845 5845 5845 5844 5843 5842 5842 5841 5840 5840 5839 5839
5829 5830 5831 5833 5831 5832 5834 5833 5832 5832 5832 5832 5833 5833 5833 5833 5834 5834 5834 5835 5836 5836 5835 5836 5836 5835 5835 5836 5837 5837 5838 5838 5838 5838 5837 5837 5836 5836 5835 5835 5834 5834 5833 5832
5820 5821 5823 5821 5822 5822 5822 5823 5823 5822 5822 5823 5823 5823 5824 5824 5824 5824 5825 5827 5827 5827 5828 5828 5828 5828 5829 5829 5830 5830 5830 5830 5829 5830 5830 5830 5829 5829 5828 5828 5828 5827 5827 5826
5810 5812 5811 5811 5811 5811 5812 5813 5813 5813 5813 5813 5813 5814 5814 5814 5814 5815 5816 5817 5818 5818 5819 5819 5820 5820 5821 5821 5821 5821 5821 5822 5822 5821 5822 5822 5821 5821 5821 5821 5821 5820 5820 5819
5801 5802 5801 5801 5800 5801 5802 5802 5802 5802 5803 5803 5803 5804 5804 5804 5805 5805 5806 5807 5808 5809 5810 5810 5811 5811 5812 5812 5812 5813 5812 5813 5813 5813 5814 5814 5813 5813 5813 5813 5813 5813 5812 5812
5791 5792 5792 5792 5791 5791 5792 5792 5791 5791 5792 5792 5793 5793 5794 5794 5795 5795 5796 5797 5798 5799 5800 5801 5802 5802 5803 5803 5803 5804 5804 5804 5804 5805 5805 5805 5805 5805 5806 5806 5805 5805 5805 5804
5781 5782 5782 5782 5782 5781 5781 5780 5780 5780 5781 5781 5782 5783 5783 5784 5784 5785 5785 5786 5787 5788 5789 5790 5791 5793 5793 5794 5794 5795 5795 5795 5796 5796 5797 5797 5797 5797 5798 5798 5797 5797 5797 5796
5771 5771 5771 5771 5771 5770 5770 5770 5769 5769 5770 5771 5771 5771 5772 5773 5773 5773 5774 5775 5776 5778 5779 5780 5781 5782 5783 5784 5784 5785 5785 5786 5786 5787 5787 5788 5788 5789 5789 5789 5788 5788 5788 5788
5761 5761 5760 5761 5761 5760 5760 5759 5759 5758 5758 5759 5760 5760 5760 5761 5762 5762 5762 5762 5765 5767 5768 5770 5771 5772 5773 5774 5774 5775 5775 5776 5776 5777 5777 5778 5778 5779 5779 5779 5779 5779 5780 5779
5751 5751 5751 5750 5750 5750 5749 5749 5748 5748 5748 5748 5749 5749 5749 5750 5750 5750 5750 5751 5754 5755 5757 5759 5760 5761 5762 5763 5764 5764 5764 5765 5765 5766 5767 5767 5768 5768 5768 5768 5769 5769 5769 5769
5741 5741 5740 5740 5739 5739 5738 5738 5738 5738 5738 5738 5738 5739 5739 5739 5739 5740 5740 5741 5743 5744 5746 5747 5748 5750 5750 5751 5752 5753 5753 5754 5754 5755 5756 5756 5757 5756 5757 5758 5758 5759 5759 5760
5731 5731 5730 5730 5729 5728 5727 5727 5727 5727 5727 5728 5728 5728 5728 5729 5729 5729 5729 5730 5732 5733 5734 5735 5736 5737 5738 5739 5740 5741 5742 5743 5743 5744 5744 5745 5746 5746 5747 5747 5748 5749 5749 5750
5721 5720 5720 5719 5718 5717 5716 5716 5716 5716 5717 5717 5718 5718 5718 5718 5719 5719 5719 5719 5720 5721 5722 5723 5723 5725 5726 5727 5728 5729 5730 5731 5731 5732 5733 5733 5734 5735 5736 5737 5737 5738 5739 5739
5711 5710 5710 5709 5708 5707 5706 5706 5705 5706 5706 5706 5707 5707 5708 5708 5708 5708 5708 5709 5709 5710 5710 5711 5712 5713 5714 5715 5716 5717 5718 5719 5720 5721 5722 5722 5723 5724 5725 5725 5726 5727 5727 5728
5702 5701 5700 5699 5698 5697 5696 5696 5696 5696 5695 5695 5696 5696 5697 5697 5697 5697 5698 5698 5698 5699 5699 5700 5701 5702 5703 5703 5704 5705 5706 5707 5708 5709 5710 5711 5712 5712 5714 5715 5715 5716 5717 5717
5694 5693 5692 5691 5690 5689 5688 5687 5686 5686 5686 5685 5685 5686 5686 5687 5687 5688 5688 5688 5688 5688 5689 5690 5691 5692 5693 5693 5693 5694 5695 5697 5697 5698 5700 5701 5702 5702 5703 5704 5705 5705 5706 5706
5685 5684 5683 5682 5681 5680 5679 5678 5678 5677 5677 5677 5676 5676 5677 5678 5678 5678 5679 5679 5679 5679 5680 5681 5682 5682 5683 5683 5684 5685 5686 5687 5688 5688 5690 5691 5692 5692 5693 5694 5694 5695 5696 5696
5678 5677 5676 5674 5673 5672 5671 5670 5670 5670 5669 5669 5669 5668 5669 5669 5669 5670 5670 5670 5670 5671 5671 5672 5673 5673 5674 5674 5675 5675 5676 5677 5678 5679 5680 5681 5682 5682 5683 5684 5684 5685 5686 5686
5670 5670 5668 5667 5666 5665 5664 5663 5663 5663 5663 5662 5662 5662 5662 5663 5663 5662 5662 5663 5663 5663 5664 5664 5664 5665 5665 5666 5666 5667 5667 5668 5668 5669 5670 5671 5672 5673 5674 5675 5675 5675 5676 5676
5663 5662 5661 5660 5659 5659 5658 5658 5657 5657 5657 5656 5656 5656 5656 5656 5656 5656 5656 5656 5656 5656 5656 5656 5656 5656 5657 5657 5657 5658 5658 5658 5659 5660 5661 5662 5663 5663 5664 5665 5665 5666 5666 5666
5657 5656 5655 5654 5653 5653 5653 5652 5651 5651 5651 5651 5651 5651 5651 5651 5650 5650 5649 5649 5649 5649 5649 5649 5649 5649 5649 5649 5649 5649 5649 5650 5650 5651 5652 5652 5653 5654 5654 5655 5656 5656 5656 5657
5652 5651 5651 5650 5649 5648 5648 5647 5646 5646 5646 5646 5646 5646 5646 5646 5645 5645 5644 5644 5643 5643 5643 5642 5642 5642 5642 5642 5642 5642 5642 5642 5642 5642 5643 5644 5644 5645 5645 5646 5646 5647 5647 5647